KA4TEV Fort Meyers FL US current weather conditions

sailwx.info

Wind from 044

Air temperature 12.2° C
Dewpoint 7.9° C

Last reported at 2018-Dec-12 02:09 UTC.
Time now 2018-Dec-12 03:00 UTC

Location: N 26°31' W 081°57'.
View on Google Maps.

See reports from other nearby stations

  
Tides and Currents Weather Stations Pressure Air Temp Water Temp Dewpoint Dewpoint Depression Visibility Wind Speed Wind Dir Waves Ship Positions
date/time (UTC)wind fromknots sea level pressurealtimeterstation pressurevisibilityair tempwater tempwave heightnotes
2018-Dec-12 02:09 044 12.2
2018-Dec-12 02:04 042 12.2
2018-Dec-12 01:59 011 1 gusting 4 12.2
2018-Dec-12 01:54 017 1 gusting 4 12.2
2018-Dec-12 01:49 033 1 gusting 4 12.2
2018-Dec-12 01:44 041 1 gusting 5 12.2
2018-Dec-12 01:39 029 1 gusting 6 12.2
2018-Dec-12 01:34 051 2 gusting 6 12.2
2018-Dec-12 01:29 040 1 gusting 5 12.2
2018-Dec-12 01:24 053 1 gusting 5 12.8
2018-Dec-12 01:19 005 0 gusting 5 12.8
2018-Dec-12 01:14 005 1 gusting 5 12.2
2018-Dec-12 01:09 349 1 gusting 2 12.2
2018-Dec-12 01:04 030 0 gusting 4 12.2
2018-Dec-12 00:59 010 1 gusting 4 12.8
2018-Dec-12 00:54 021 12.8
2018-Dec-12 00:49 016 0 gusting 3 12.8
2018-Dec-12 00:44 349 0 gusting 3 12.8
2018-Dec-12 00:39 010 1 gusting 3 12.8
2018-Dec-12 00:34 031 12.8
2018-Dec-12 00:29 024 0 gusting 2 12.8
2018-Dec-12 00:24 024 0 gusting 2 12.8
2018-Dec-12 00:19 322 12.8
2018-Dec-12 00:14 040 0 gusting 2 12.8
2018-Dec-12 00:09 360 12.8
2018-Dec-12 00:04 355 13.3
2018-Dec-11 23:59 343 1 gusting 4 13.3
2018-Dec-11 23:54 338 13.3
2018-Dec-11 23:49 360 0 gusting 1 13.3
2018-Dec-11 23:44 342 0 gusting 2 13.3
2018-Dec-11 23:39 333 13.3
2018-Dec-11 23:34 021 1 gusting 4 13.3
2018-Dec-11 23:29 337 0 gusting 3 13.3
2018-Dec-11 23:24 014 13.3
2018-Dec-11 23:19 341 0 gusting 3 13.9
2018-Dec-11 23:14 015 0 gusting 3 13.9
2018-Dec-11 23:09 334 13.9
2018-Dec-11 23:04 315 1 gusting 5 13.9
2018-Dec-11 22:59 010 1 gusting 4 13.9
2018-Dec-11 22:54 338 1 gusting 4 13.9
2018-Dec-11 22:49 335 1 gusting 5 14.4
2018-Dec-11 22:44 323 3 gusting 6 14.4
2018-Dec-11 22:39 286 2 gusting 6 14.4
2018-Dec-11 22:34 350 2 gusting 6 14.4
2018-Dec-11 22:29 330 2 gusting 6 14.4
2018-Dec-11 22:24 342 3 gusting 6 15.0
2018-Dec-11 22:19 355 1 gusting 5 15.0
2018-Dec-11 22:14 334 2 gusting 5 15.6
2018-Dec-11 22:09 327 1 gusting 6 16.1
2018-Dec-11 22:04 337 1 gusting 7 16.1
2018-Dec-11 21:59 334 4 gusting 7 16.1
2018-Dec-11 21:54 307 2 gusting 8 16.1
2018-Dec-11 21:49 338 4 gusting 8 16.1
2018-Dec-11 21:44 323 4 gusting 8 16.7
2018-Dec-11 21:39 346 2 gusting 7 16.7
2018-Dec-11 21:34 333 4 gusting 7 16.7
2018-Dec-11 21:29 344 2 gusting 6 16.7
2018-Dec-11 21:24 314 3 gusting 6 17.2
2018-Dec-11 21:19 349 4 gusting 6 17.2
2018-Dec-11 21:14 017 3 gusting 6 17.2
2018-Dec-11 21:09 349 3 gusting 6 17.2
2018-Dec-11 21:04 338 4 gusting 6 17.2
2018-Dec-11 20:59 321 2 gusting 8 17.8
2018-Dec-11 20:54 340 3 gusting 8 17.2
2018-Dec-11 20:49 306 3 gusting 7 17.2
2018-Dec-11 20:44 331 4 gusting 8 17.8
2018-Dec-11 20:39 053 2 gusting 9 17.8
2018-Dec-11 20:34 333 2 gusting 7 17.8
2018-Dec-11 20:29 005 3 gusting 7 17.8
2018-Dec-11 20:24 315 2 gusting 7 17.8
2018-Dec-11 20:19 322 4 gusting 8 17.8
2018-Dec-11 20:14 024 5 gusting 8 17.8
2018-Dec-11 20:09 322 2 gusting 10 17.2
2018-Dec-11 20:04 311 4 gusting 13 17.2
2018-Dec-11 19:59 339 4 gusting 9 17.2
2018-Dec-11 19:54 307 4 gusting 9 17.2
2018-Dec-11 19:49 005 3 gusting 12 17.2
2018-Dec-11 19:44 337 5 gusting 8 17.8
2018-Dec-11 19:39 355 5 gusting 12 18.3
2018-Dec-11 19:34 355 3 gusting 12 17.2
2018-Dec-11 19:29 304 3 gusting 8 17.2
2018-Dec-11 19:24 327 5 gusting 11 17.2
2018-Dec-11 19:19 345 5 gusting 12 17.2
2018-Dec-11 19:14 297 6 gusting 12 16.7
2018-Dec-11 19:09 284 4 gusting 13 17.2
2018-Dec-11 19:04 303 6 gusting 13 17.2
2018-Dec-11 18:59 340 3 gusting 9 17.2
2018-Dec-11 18:54 349 4 gusting 9 17.8
2018-Dec-11 18:49 317 5 gusting 11 17.2
2018-Dec-11 18:44 325 4 gusting 12 17.2
2018-Dec-11 18:39 349 5 gusting 12 17.8
2018-Dec-11 18:34 349 5 gusting 9 16.7
2018-Dec-11 18:29 346 4 gusting 9 17.2
2018-Dec-11 18:24 337 4 gusting 10 17.2
2018-Dec-11 18:19 355 4 gusting 10 17.2
2018-Dec-11 18:14 005 3 gusting 10 17.2
2018-Dec-11 18:09 304 3 gusting 10 17.8
2018-Dec-11 18:04 355 4 gusting 13 17.2
2018-Dec-11 17:59 344 6 gusting 14 17.2
2018-Dec-11 17:54 344 6 gusting 14 17.2
2018-Dec-11 17:49 335 5 gusting 11 17.2
2018-Dec-11 17:44 350 6 gusting 12 17.8
2018-Dec-11 17:39 331 6 gusting 12 17.2
2018-Dec-11 17:34 360 5 gusting 10 17.2
2018-Dec-11 17:29 360 3 gusting 10 17.2
2018-Dec-11 17:24 303 5 gusting 10 17.2
2018-Dec-11 17:19 331 4 gusting 10 17.2
2018-Dec-11 17:14 355 5 gusting 10 17.2
2018-Dec-11 17:09 340 6 gusting 12 16.7
2018-Dec-11 17:04 343 4 gusting 12 17.2
2018-Dec-11 16:59 321 6 gusting 12 16.7
2018-Dec-11 16:54 013 5 gusting 11 16.7
2018-Dec-11 16:49 344 5 gusting 12 16.7
2018-Dec-11 16:44 333 6 gusting 13 17.2
2018-Dec-11 16:39 328 5 gusting 13 16.7
2018-Dec-11 16:34 013 4 gusting 10 16.7
2018-Dec-11 16:29 334 5 gusting 11 17.2
2018-Dec-11 16:24 321 5 gusting 11 17.2
2018-Dec-11 16:19 355 6 gusting 11 16.7
2018-Dec-11 16:14 355 6 gusting 12 17.2
2018-Dec-11 16:09 005 5 gusting 12 16.7
2018-Dec-11 16:04 340 6 gusting 10 16.7
2018-Dec-11 15:59 331 6 gusting 10 16.7
2018-Dec-11 15:54 335 2 gusting 9 16.7
2018-Dec-11 15:49 311 5 gusting 11 16.7
2018-Dec-11 15:44 005 3 gusting 7 16.7
2018-Dec-11 15:39 351 4 gusting 9 16.7
2018-Dec-11 15:34 325 6 gusting 9 16.1
2018-Dec-11 15:29 344 4 gusting 8 16.1
2018-Dec-11 15:24 331 4 gusting 7 16.1
2018-Dec-11 15:19 345 3 gusting 7 15.6
2018-Dec-11 15:14 050 4 gusting 7 15.6
2018-Dec-11 15:09 061 3 gusting 7 15.6
2018-Dec-11 15:04 040 2 gusting 7 15.0
2018-Dec-11 14:59 034 2 gusting 6 15.6
2018-Dec-11 14:54 029 3 gusting 6 15.6
2018-Dec-11 14:49 022 3 gusting 8 15.0
2018-Dec-11 14:44 026 3 gusting 6 14.4
2018-Dec-11 14:39 040 3 gusting 6 15.0
2018-Dec-11 14:34 360 3 gusting 6 15.0
2018-Dec-11 14:29 324 2 gusting 7 14.4
2018-Dec-11 14:24 355 4 gusting 7 14.4
2018-Dec-11 14:19 360 4 gusting 8 13.9
2018-Dec-11 14:14 355 5 gusting 8 13.9
2018-Dec-11 14:09 344 4 gusting 7 13.3
2018-Dec-11 14:04 029 2 gusting 6 13.3
2018-Dec-11 13:59 348 3 gusting 6 13.3
2018-Dec-11 13:54 020 1 gusting 6 13.3
2018-Dec-11 13:49 020 3 gusting 8 12.8
2018-Dec-11 13:44 046 1 gusting 10 13.3
2018-Dec-11 13:39 042 3 gusting 7 13.3
2018-Dec-11 13:34 013 2 gusting 7 12.8
2018-Dec-11 13:29 025 3 gusting 7 12.8
2018-Dec-11 13:24 032 2 gusting 6 12.2
2018-Dec-11 13:19 338 2 gusting 6 11.7
2018-Dec-11 13:14 028 3 gusting 6 11.7
2018-Dec-11 13:09 036 3 gusting 6 11.1
2018-Dec-11 13:04 034 2 gusting 6 11.1
2018-Dec-11 12:59 029 1 gusting 6 11.1
2018-Dec-11 12:54 032 2 gusting 5 11.1
2018-Dec-11 12:49 034 1 gusting 4 11.1
2018-Dec-11 12:44 018 1 gusting 4 11.1
2018-Dec-11 12:39 053 0 gusting 7 11.1
2018-Dec-11 12:34 005 1 gusting 7 11.1
2018-Dec-11 12:29 030 2 gusting 6 11.1
2018-Dec-11 12:24 348 0 gusting 3 11.1
2018-Dec-11 12:19 067 0 gusting 3 11.1
2018-Dec-11 12:14 059 0 gusting 3 11.1
2018-Dec-11 12:09 360 0 gusting 3 11.7
2018-Dec-11 12:04 056 0 gusting 2 11.7
2018-Dec-11 11:59 048 11.1
2018-Dec-11 11:54 060 2 gusting 5 11.1
2018-Dec-11 11:49 055 11.1
2018-Dec-11 11:44 068 11.1
2018-Dec-11 11:39 069 11.1
2018-Dec-11 11:34 069 11.1
2018-Dec-11 11:29 069 0 gusting 1 11.1
2018-Dec-11 11:24 072 0 gusting 1 11.1
2018-Dec-11 11:19 060 0 gusting 2 11.1
2018-Dec-11 11:14 046 0 gusting 2 11.7
2018-Dec-11 11:09 073 0 gusting 2 11.7
2018-Dec-11 11:04 071 0 gusting 2 11.7
2018-Dec-11 10:59 086 11.7
2018-Dec-11 10:54 086 11.7
2018-Dec-11 10:49 084 0 gusting 6 12.2
2018-Dec-11 10:44 076 0 gusting 6 12.2
2018-Dec-11 10:39 038 3 gusting 6 11.7
2018-Dec-11 10:34 028 1 gusting 6 11.7
2018-Dec-11 10:29 013 11.7
2018-Dec-11 10:24 043 0 gusting 2 11.7
2018-Dec-11 10:19 060 11.7
2018-Dec-11 10:14 060 11.7
2018-Dec-11 10:09 060 11.1
2018-Dec-11 10:04 058 11.1
2018-Dec-11 09:59 051 0 gusting 1 11.1
2018-Dec-11 09:54 050 11.1
2018-Dec-11 09:49 050 11.1
2018-Dec-11 09:44 053 11.1
2018-Dec-11 09:39 053 11.1
2018-Dec-11 09:34 053 0 gusting 2 11.1
2018-Dec-11 09:29 069 0 gusting 2 11.1
2018-Dec-11 09:24 080 0 gusting 1 11.1
2018-Dec-11 09:19 082 11.1
2018-Dec-11 09:14 073 0 gusting 0 11.1
2018-Dec-11 09:09 073 11.1
2018-Dec-11 09:04 072 11.1
2018-Dec-11 08:59 072 11.1
2018-Dec-11 08:54 071 0 gusting 1 11.1
2018-Dec-11 08:49 071 11.1
2018-Dec-11 08:44 071 11.1
2018-Dec-11 08:39 071 11.1
2018-Dec-11 08:34 071 11.1
2018-Dec-11 08:29 071 11.7
2018-Dec-11 08:24 071 11.7
2018-Dec-11 08:19 071 11.7
2018-Dec-11 08:14 071 11.7
2018-Dec-11 08:09 071 11.7
2018-Dec-11 08:04 071 11.7
2018-Dec-11 07:59 071 11.7
2018-Dec-11 07:54 071 0 gusting 2 11.7
2018-Dec-11 07:49 064 11.7
2018-Dec-11 07:44 078 0 gusting 1 12.2
2018-Dec-11 07:39 080 12.2
2018-Dec-11 07:34 091 12.2
2018-Dec-11 07:29 092 0 gusting 2 12.2
2018-Dec-11 07:24 067 1 gusting 2 12.2
2018-Dec-11 07:19 072 0 gusting 2 12.2
2018-Dec-11 07:14 078 0 gusting 3 12.8
2018-Dec-11 07:09 068 1 gusting 3 12.8
2018-Dec-11 07:04 088 1 gusting 2 12.8
2018-Dec-11 06:59 080 0 gusting 3 12.8
2018-Dec-11 06:54 069 0 gusting 3 13.3
2018-Dec-11 06:49 025 1 gusting 4 13.3
2018-Dec-11 06:44 056 2 gusting 5 13.3
2018-Dec-11 06:39 024 1 gusting 5 13.3
2018-Dec-11 06:34 061 1 gusting 5 13.3
2018-Dec-11 06:29 055 1 gusting 3 13.3
2018-Dec-11 06:24 075 0 gusting 1 13.3
2018-Dec-11 06:19 080 0 gusting 1 13.3
2018-Dec-11 06:14 067 0 gusting 2 13.3
2018-Dec-11 06:09 087 0 gusting 2 13.3
2018-Dec-11 06:04 074 0 gusting 3 13.3
2018-Dec-11 05:59 051 1 gusting 5 13.3
2018-Dec-11 05:54 086 13.3
2018-Dec-11 05:49 065 0 gusting 5 13.3
2018-Dec-11 05:44 053 0 gusting 2 13.3
2018-Dec-11 05:39 044 0 gusting 3 13.3
2018-Dec-11 05:34 037 0 gusting 4 13.3
2018-Dec-11 05:29 030 2 gusting 4 13.3
2018-Dec-11 05:24 030 1 gusting 4 13.3
2018-Dec-11 05:19 020 1 gusting 6 13.3
2018-Dec-11 05:14 040 2 gusting 6 13.3
2018-Dec-11 05:09 013 1 gusting 6 13.3
2018-Dec-11 05:04 014 1 gusting 6 13.3
2018-Dec-11 04:59 012 1 gusting 8 13.3
2018-Dec-11 04:54 015 2 gusting 8 13.3
2018-Dec-11 04:49 033 1 gusting 4 13.3
2018-Dec-11 04:44 034 1 gusting 3 13.3
2018-Dec-11 04:39 015 13.3
2018-Dec-11 04:34 015 13.3
2018-Dec-11 04:29 349 0 gusting 2 13.3
2018-Dec-11 04:24 019 0 gusting 3 13.3
2018-Dec-11 04:19 020 0 gusting 2 13.3
2018-Dec-11 04:14 026 0 gusting 2 13.3
2018-Dec-11 04:09 030 0 gusting 2 13.3
2018-Dec-11 04:04 005 0 gusting 2 13.3
2018-Dec-11 03:59 022 0 gusting 4 13.3
2018-Dec-11 03:54 022 1 gusting 4 13.3
2018-Dec-11 03:49 025 1 gusting 4 13.3
2018-Dec-11 03:44 325 0 gusting 4 13.9
2018-Dec-11 03:39 030 0 gusting 3 13.9
2018-Dec-11 03:34 028 1 gusting 3 13.9
2018-Dec-11 03:29 063 1 gusting 3 13.9
2018-Dec-11 03:24 360 0 gusting 4 14.4
2018-Dec-11 03:19 025 1 gusting 2 14.4
2018-Dec-11 03:14 033 0 gusting 3 14.4
2018-Dec-11 03:09 344 1 gusting 4 14.4
2018-Dec-11 03:04 360 1 gusting 4 14.4
2018-Dec-11 02:59 038 0 gusting 2 15.0
2018-Dec-11 02:54 026 0 gusting 3 15.0
2018-Dec-11 02:49 057 0 gusting 3 15.0
2018-Dec-11 02:44 046 0 gusting 4 15.0
2018-Dec-11 02:39 040 1 gusting 4 15.0
2018-Dec-11 02:34 044 1 gusting 5 15.0
2018-Dec-11 02:29 022 1 gusting 5 15.0
2018-Dec-11 02:24 021 1 gusting 4 15.0
2018-Dec-11 02:19 011 0 gusting 4 15.0
2018-Dec-11 02:14 022 1 gusting 4 15.0
2018-Dec-11 02:09 355 0 gusting 5 15.0
2018-Dec-11 02:04 038 1 gusting 5 15.0
2018-Dec-11 01:59 019 2 gusting 5 15.0
2018-Dec-11 01:54 042 1 gusting 5 15.6
2018-Dec-11 01:49 005 1 gusting 6 15.6
2018-Dec-11 01:44 349 2 gusting 6 15.6
2018-Dec-11 01:39 348 1 gusting 5 15.6
2018-Dec-11 01:34 324 2 gusting 5 15.6
2018-Dec-11 01:29 344 0 gusting 4 15.6
2018-Dec-11 01:24 013 15.6
2018-Dec-11 01:19 011 15.6
2018-Dec-11 01:14 005 1 gusting 4 15.6
2018-Dec-11 01:09 331 0 gusting 4 15.6
2018-Dec-11 01:04 355 1 gusting 4 15.6
2018-Dec-11 00:59 348 0 gusting 4 15.6
2018-Dec-11 00:54 331 0 gusting 4 15.6
2018-Dec-11 00:49 348 0 gusting 4 15.6
2018-Dec-11 00:44 021 1 gusting 4 15.6
2018-Dec-11 00:39 039 1 gusting 4 15.6
2018-Dec-11 00:34 026 0 gusting 6 16.1
2018-Dec-11 00:29 348 2 gusting 6 16.1
2018-Dec-11 00:24 350 2 gusting 6 16.1
2018-Dec-11 00:19 333 3 gusting 7 16.1
2018-Dec-11 00:14 340 1 gusting 6 16.1
2018-Dec-11 00:09 319 0 gusting 6 16.1
2018-Dec-11 00:04 342 4 gusting 7 16.1
2018-Dec-10 23:59 339 2 gusting 7 16.1
2018-Dec-10 23:54 342 3 gusting 7 16.1
2018-Dec-10 23:49 344 2 gusting 7 16.1
2018-Dec-10 23:44 324 4 gusting 8 16.1
2018-Dec-10 23:39 315 4 gusting 8 16.1
2018-Dec-10 23:34 333 5 gusting 8 16.1
2018-Dec-10 23:29 317 3 gusting 8 16.7
2018-Dec-10 23:24 340 1 gusting 8 16.7
2018-Dec-10 23:19 325 2 gusting 6 16.7
2018-Dec-10 23:14 005 1 gusting 6 16.7
2018-Dec-10 23:09 335 3 gusting 6 16.7
2018-Dec-10 23:04 340 2 gusting 6 16.7
2018-Dec-10 22:59 344 2 gusting 5 16.7
2018-Dec-10 22:54 010 1 gusting 6 16.7
2018-Dec-10 22:49 329 1 gusting 8 17.2
2018-Dec-10 22:44 333 4 gusting 8 17.2
2018-Dec-10 22:39 329 4 gusting 6 17.2
2018-Dec-10 22:34 314 2 gusting 6 17.2
2018-Dec-10 22:29 331 2 gusting 6 17.2
2018-Dec-10 22:24 351 1 gusting 8 17.8
2018-Dec-10 22:19 329 4 gusting 10 17.8
2018-Dec-10 22:14 030 4 gusting 10 17.8
2018-Dec-10 22:09 343 4 gusting 8 17.8
2018-Dec-10 22:04 309 1 gusting 8 18.3
2018-Dec-10 21:59 321 3 gusting 7 18.3
2018-Dec-10 21:54 300 4 gusting 7 18.3
2018-Dec-10 21:49 274 3 gusting 8 18.3
2018-Dec-10 21:44 327 4 gusting 8 18.3
2018-Dec-10 21:39 280 4 gusting 7 18.3
2018-Dec-10 21:34 329 4 gusting 7 18.3
2018-Dec-10 21:29 332 4 gusting 8 18.9
2018-Dec-10 21:24 329 4 gusting 9 19.4
2018-Dec-10 21:19 346 4 gusting 9 18.9
2018-Dec-10 21:14 355 4 gusting 9 18.9
2018-Dec-10 21:09 335 3 gusting 9 18.9
2018-Dec-10 21:04 318 6 gusting 8 18.9
2018-Dec-10 20:59 322 3 gusting 10 18.9
2018-Dec-10 20:54 283 5 gusting 10 19.4
2018-Dec-10 20:49 303 5 gusting 9 20.0
2018-Dec-10 20:44 302 5 gusting 10 20.0
2018-Dec-10 20:39 295 4 gusting 12 19.4
2018-Dec-10 20:34 288 5 gusting 12 18.9
2018-Dec-10 20:29 298 4 gusting 12 19.4
2018-Dec-10 20:24 324 5 gusting 13 19.4
2018-Dec-10 20:19 328 6 gusting 13 19.4
2018-Dec-10 20:14 341 6 gusting 12 20.0
2018-Dec-10 20:09 346 5 gusting 10 20.0
2018-Dec-10 20:04 323 6 gusting 10 20.0
2018-Dec-10 19:59 289 5 gusting 10 20.0
2018-Dec-10 19:54 311 6 gusting 13 20.0
2018-Dec-10 19:49 334 7 gusting 13 20.6
2018-Dec-10 19:44 306 5 gusting 13 20.6
2018-Dec-10 19:39 346 5 gusting 13 20.6
2018-Dec-10 19:34 317 6 gusting 11 21.1
2018-Dec-10 19:29 300 4 gusting 11 20.6
2018-Dec-10 19:24 261 6 gusting 11 20.6
2018-Dec-10 19:19 299 5 gusting 13 20.0
2018-Dec-10 19:14 273 6 gusting 13 20.6
2018-Dec-10 19:09 290 5 gusting 13 21.1
2018-Dec-10 19:04 318 6 gusting 11 21.1
2018-Dec-10 18:59 281 5 gusting 13 20.6
2018-Dec-10 18:54 292 5 gusting 13 20.6
2018-Dec-10 18:49 321 2 gusting 13 21.1
2018-Dec-10 18:44 283 4 gusting 13 20.6
2018-Dec-10 18:39 304 6 gusting 10 21.1
2018-Dec-10 18:34 329 6 gusting 9 21.7
2018-Dec-10 18:29 332 6 gusting 9 21.7
2018-Dec-10 18:24 331 4 gusting 9 20.6
2018-Dec-10 18:19 318 4 gusting 8 20.6
2018-Dec-10 18:14 314 4 gusting 8 20.6
2018-Dec-10 18:09 311 3 gusting 10 20.0
2018-Dec-10 18:04 283 4 gusting 11 20.6
2018-Dec-10 17:59 329 6 gusting 11 20.6
2018-Dec-10 17:54 287 3 gusting 11 21.1
2018-Dec-10 17:49 309 3 gusting 7 20.6
2018-Dec-10 17:44 346 3 gusting 7 20.0
2018-Dec-10 17:39 009 3 gusting 8 20.6
2018-Dec-10 17:34 355 5 gusting 8 20.0
2018-Dec-10 17:29 276 5 gusting 10 19.4
2018-Dec-10 17:24 304 4 gusting 10 18.9
2018-Dec-10 17:19 281 4 gusting 7 19.4
2018-Dec-10 17:14 292 2 gusting 9 19.4
2018-Dec-10 17:09 005 3 gusting 9 20.0
2018-Dec-10 17:04 331 3 gusting 8 20.0
2018-Dec-10 16:59 294 3 gusting 9 20.0
2018-Dec-10 16:54 305 4 gusting 9 20.0
2018-Dec-10 16:49 317 2 gusting 6 20.6
2018-Dec-10 16:44 346 2 gusting 6 20.6
2018-Dec-10 16:39 337 2 gusting 6 20.6
2018-Dec-10 16:34 330 3 gusting 6 20.0
2018-Dec-10 16:29 296 3 gusting 7 20.6
2018-Dec-10 16:24 334 3 gusting 9 21.1
2018-Dec-10 16:19 319 5 gusting 10 20.6
2018-Dec-10 16:14 331 4 gusting 10 21.1
2018-Dec-10 16:09 329 4 gusting 8 21.1
2018-Dec-10 16:04 344 3 gusting 6 21.1
2018-Dec-10 15:59 336 3 gusting 8 21.1
2018-Dec-10 15:54 315 5 gusting 8 21.1
2018-Dec-10 15:49 321 3 gusting 9 21.1
2018-Dec-10 15:44 337 4 gusting 9 20.6
2018-Dec-10 15:34 325 2 gusting 7 20.6
2018-Dec-10 15:29 323 6 gusting 7 20.6
2018-Dec-10 15:24 338 2 gusting 6 20.6
2018-Dec-10 15:19 330 2 gusting 6 20.0
2018-Dec-10 15:14 029 4 gusting 6 20.0
2018-Dec-10 15:09 360 2 gusting 5 20.0
2018-Dec-10 15:04 017 2 gusting 5 20.0
2018-Dec-10 14:59 046 2 gusting 6 20.0
2018-Dec-10 14:54 355 2 gusting 6 19.4
2018-Dec-10 14:49 013 3 gusting 5 18.9
2018-Dec-10 14:44 329 3 gusting 6 18.9
2018-Dec-10 14:39 342 2 gusting 6 18.9
2018-Dec-10 14:34 018 2 gusting 5 18.3
2018-Dec-10 14:29 340 2 gusting 5 18.3
2018-Dec-10 14:24 045 1 gusting 5 18.3
2018-Dec-10 14:19 019 1 gusting 5 18.9
2018-Dec-10 14:14 360 1 gusting 5 18.9
2018-Dec-10 14:09 321 1 gusting 5 19.4
2018-Dec-10 14:04 326 1 gusting 4 18.3
2018-Dec-10 13:59 355 0 gusting 5 18.3
2018-Dec-10 13:54 360 3 gusting 5 18.3
2018-Dec-10 13:49 320 1 gusting 6 18.3
2018-Dec-10 13:44 355 3 gusting 6 18.9
2018-Dec-10 13:39 338 4 gusting 6 18.9
2018-Dec-10 13:34 344 3 gusting 6 18.9
2018-Dec-10 13:29 360 3 gusting 6 18.9
2018-Dec-10 13:24 350 2 gusting 7 18.3
2018-Dec-10 13:19 288 4 gusting 6 18.3
2018-Dec-10 13:14 348 3 gusting 6 17.8
2018-Dec-10 13:09 338 2 gusting 6 17.8
2018-Dec-10 13:04 347 2 gusting 5 17.8
2018-Dec-10 12:59 009 1 gusting 7 17.8
2018-Dec-10 12:54 338 4 gusting 7 17.8
2018-Dec-10 12:49 360 1 gusting 6 17.8
2018-Dec-10 12:44 331 3 gusting 8 17.8
2018-Dec-10 12:39 339 2 gusting 6 18.3
2018-Dec-10 12:34 355 3 gusting 6 18.3
2018-Dec-10 12:29 032 1 gusting 6 18.3
2018-Dec-10 12:24 341 2 gusting 6 18.9
2018-Dec-10 12:19 346 3 gusting 6 18.9
2018-Dec-10 12:14 348 3 gusting 6 18.9
2018-Dec-10 12:09 282 3 gusting 6 18.9
2018-Dec-10 12:04 306 1 gusting 5 18.9
2018-Dec-10 11:59 322 2 gusting 6 18.9
2018-Dec-10 11:54 294 1 gusting 6 18.9
2018-Dec-10 11:49 308 1 gusting 6 18.9
2018-Dec-10 11:44 303 1 gusting 6 19.4
2018-Dec-10 11:39 325 2 gusting 6 19.4
2018-Dec-10 11:34 317 2 gusting 7 19.4
2018-Dec-10 11:29 329 3 gusting 9 19.4
2018-Dec-10 11:24 279 2 gusting 7 19.4
2018-Dec-10 11:19 317 2 gusting 8 19.4
2018-Dec-10 11:14 300 4 gusting 8 19.4
2018-Dec-10 11:09 337 1 gusting 8 19.4
2018-Dec-10 11:04 293 2 gusting 6 19.4
2018-Dec-10 10:59 321 2 gusting 5 19.4
2018-Dec-10 10:54 310 1 gusting 8 19.4
2018-Dec-10 10:49 333 4 gusting 8 19.4
2018-Dec-10 10:44 309 3 gusting 7 19.4
2018-Dec-10 10:39 355 2 gusting 7 20.0
2018-Dec-10 10:34 300 1 gusting 12 20.0
2018-Dec-10 10:29 327 3 gusting 13 20.0
2018-Dec-10 10:24 294 3 gusting 13 20.0
2018-Dec-10 10:19 307 6 gusting 13 20.0
2018-Dec-10 10:14 322 4 gusting 12 20.0
2018-Dec-10 10:09 280 3 gusting 11 20.0
2018-Dec-10 10:04 355 5 gusting 9 20.0
2018-Dec-10 09:59 294 2 gusting 7 20.0
2018-Dec-10 09:54 292 3 gusting 10 20.0
2018-Dec-10 09:49 299 2 gusting 7 20.0
2018-Dec-10 09:44 314 3 gusting 7 20.0
2018-Dec-10 09:39 360 3 gusting 7 20.0
2018-Dec-10 09:34 276 3 gusting 8 20.0
2018-Dec-10 09:29 313 3 gusting 10 20.0
2018-Dec-10 09:24 275 4 gusting 9 20.0
2018-Dec-10 09:19 277 3 gusting 10 20.0
2018-Dec-10 09:14 309 2 gusting 10 20.0
2018-Dec-10 09:09 284 4 gusting 8 20.0
2018-Dec-10 09:04 297 1 gusting 12 20.0
2018-Dec-10 08:59 323 5 gusting 12 20.0
2018-Dec-10 08:54 333 1 gusting 9 20.0
2018-Dec-10 08:49 294 4 gusting 8 20.0
2018-Dec-10 08:44 285 3 gusting 8 20.0
2018-Dec-10 08:39 299 4 gusting 8 20.0
2018-Dec-10 08:34 296 3 gusting 8 20.0
2018-Dec-10 08:29 285 3 gusting 10 20.0
2018-Dec-10 08:24 288 4 gusting 10 20.0
2018-Dec-10 08:19 288 2 gusting 6 20.0
2018-Dec-10 08:14 329 1 gusting 9 20.6
2018-Dec-10 08:09 302 5 gusting 10 20.0
2018-Dec-10 08:04 279 4 gusting 10 20.0
2018-Dec-10 07:59 294 1 gusting 8 20.0
2018-Dec-10 07:54 285 2 gusting 6 20.0
2018-Dec-10 07:49 292 1 gusting 6 20.0
2018-Dec-10 07:44 296 2 gusting 6 20.0
2018-Dec-10 07:39 289 3 gusting 6 20.0
2018-Dec-10 07:34 276 1 gusting 6 20.0
2018-Dec-10 07:29 279 3 gusting 6 20.0
2018-Dec-10 07:24 291 1 gusting 6 20.0
2018-Dec-10 07:19 302 2 gusting 6 20.0
2018-Dec-10 07:14 287 1 gusting 5 20.0
2018-Dec-10 07:09 272 1 gusting 5 20.0
2018-Dec-10 07:04 286 1 gusting 4 20.0
2018-Dec-10 06:59 292 0 gusting 3 20.0
2018-Dec-10 06:54 288 0 gusting 3 20.0
2018-Dec-10 06:49 284 0 gusting 3 20.0
2018-Dec-10 06:44 289 0 gusting 4 20.0
2018-Dec-10 06:39 277 1 gusting 4 20.0
2018-Dec-10 06:34 272 1 gusting 4 20.0
2018-Dec-10 06:29 292 1 gusting 4 20.0
2018-Dec-10 06:24 286 0 gusting 6 20.0
2018-Dec-10 06:19 280 1 gusting 6 20.0
2018-Dec-10 06:14 300 0 gusting 5 20.0
2018-Dec-10 06:09 284 1 gusting 4 20.6
2018-Dec-10 06:04 290 1 gusting 4 20.6
2018-Dec-10 05:59 276 1 gusting 4 20.6
2018-Dec-10 05:54 291 1 gusting 4 20.6
2018-Dec-10 05:49 284 1 gusting 5 20.6
2018-Dec-10 05:44 272 2 gusting 4 20.6
2018-Dec-10 05:39 306 2 gusting 4 20.6
2018-Dec-10 05:34 295 0 gusting 4 20.6
2018-Dec-10 05:29 292 2 gusting 5 20.6
2018-Dec-10 05:24 298 1 gusting 7 20.6
2018-Dec-10 05:19 303 2 gusting 7 20.6
2018-Dec-10 05:14 282 2 gusting 5 20.6
2018-Dec-10 05:09 292 1 gusting 5 20.6
2018-Dec-10 05:04 294 1 gusting 5 20.6
2018-Dec-10 04:59 290 0 gusting 4 20.6
2018-Dec-10 04:54 319 1 gusting 6 20.6
2018-Dec-10 04:49 327 1 gusting 6 20.6
2018-Dec-10 04:44 275 3 gusting 6 20.6
2018-Dec-10 04:39 290 2 gusting 6 20.6
2018-Dec-10 04:34 283 1 gusting 5 20.6
2018-Dec-10 04:29 290 2 gusting 4 20.6
2018-Dec-10 04:24 288 0 gusting 6 20.6
2018-Dec-10 04:19 277 2 gusting 6 20.6
2018-Dec-10 04:14 275 2 gusting 4 20.6
2018-Dec-10 04:09 305 2 gusting 6 20.6
2018-Dec-10 04:04 283 2 gusting 7 20.6
2018-Dec-10 03:59 288 2 gusting 7 20.6
2018-Dec-10 03:54 294 3 gusting 6 20.6
2018-Dec-10 03:49 280 2 gusting 5 20.6
2018-Dec-10 03:44 288 1 gusting 4 20.6
2018-Dec-10 03:39 315 1 gusting 5 21.1
2018-Dec-10 03:34 288 2 gusting 5 21.1
2018-Dec-10 03:29 319 2 gusting 4 21.1
2018-Dec-10 03:24 281 2 gusting 4 21.1
2018-Dec-10 03:19 302 1 gusting 5 21.1
2018-Dec-10 03:14 281 2 gusting 5 21.1
2018-Dec-10 03:09 292 1 gusting 6 21.1
2018-Dec-10 03:04 282 2 gusting 6 21.1